STARLINK-1701

decayed
NORAD ID: 46550 Int'l Des: 2020-070 Owner: SPXS Country: US Constellation: starlink
LEOCIRCULAR

关于 STARLINK-1701

正在加载描述...

高度历史

Altitude vs Time

uPlot chart will show altitude changes over time

两行轨道根数

1 46550U 20070U 25059.60897984 .11059146 12314-4 78953-3 0 9998
2 46550 53.0401 12.9357 0003094 177.0437 1.3892 16.40180280243739
Epoch: Feb 28, 2025 • Age: 4784 hours

当前状态

Position data unavailable
发射日期 Oct 6, 2020
运行时间 4.9 years
衰减日期 Feb 28, 2025
类型 internet

技术详情

分类 Payload
质量 260.00 kg
干质量 248.00 kg
总质量 260.00 kg
长度 0.20 m
直径 2.80 m
跨度 9.00 m
形状 Box + pan
制造商 SPXS
平台类型 Starlink
阶段状态 Unknown Transfer Status
所有者/国家 SPXS/US

大型星座

Loading constellations...